Tracking 30314 objects as of 20-Apr-2025
HD Live streaming from Space Station
objects crossing your sky now

FLOCK 4Q 5

Track FLOCK 4Q 5 now!
10-day predictions
FLOCK 4Q 5 is classified as:


NORAD ID: 58325
Int'l Code: 2023-174BX
Perigee: 155.8 km
Apogee: 173.3 km
Inclination: 97.4 °
Period: 87.6 minutes
Semi major axis: 6535 km
RCS: Unknown
Launch date: November 11, 2023
Source: United States (US)
Launch site: AIR FORCE WESTERN TEST RANGE (AFWTR)
Your satellite tracking list
Your tracking list is empty




NASA's NSSDC Master Catalog

Two Line Element Set (TLE):
1 58325U 23174BX  25107.39899845  .16661284  25605-5  58502-3 0  9990
2 58325  97.3858 195.9171 0013374 265.2290  94.7484 16.43145354 80710
Source of the keplerian elements: AFSPC